Theta_e
319 321 323 324 325 327 328 328 328 328 328 331 333 333 333 334 336 336 335 335 335 335 334 335 335 334 332 329 327 326 326 326 326 326 325 325 324 323 322 322 321 320 317 313 312 314 315 320 326 331 335 335 335 338 339 339 340 339 339 336 332 330 323 318 322 326 330 332 331 329 325 324 325 327 330 332 331 332 336 337 337 339 339 337 337
319 321 322 323 324 326 327 328 329 330 331 333 334 335 335 336 337 336 336 335 334 334 334 334 334 334 333 331 329 327 326 325 324 324 325 326 325 324 322 322 322 321 317 313 311 311 312 317 325 330 335 336 334 338 339 339 339 339 339 335 331 327 322 320 323 327 331 332 332 329 326 326 325 326 329 333 332 329 333 336 336 337 337 336 336
318 319 322 323 324 326 326 327 328 330 331 334 336 336 337 337 337 336 336 334 334 334 334 334 334 334 334 332 329 327 326 324 322 321 322 324 324 324 323 321 320 318 315 311 310 309 310 314 323 330 334 336 335 337 339 339 339 339 338 334 329 324 322 321 323 329 330 331 331 328 327 327 326 327 329 331 331 327 328 332 333 333 334 335 335
318 320 322 323 324 325 325 325 327 329 330 333 335 336 337 337 336 336 335 334 334 334 334 334 334 334 334 333 330 328 326 323 322 320 320 321 321 321 320 318 314 313 313 310 310 308 309 313 321 330 333 336 336 337 339 339 338 337 336 333 329 324 323 322 323 329 329 328 328 327 327 329 327 326 328 329 329 327 326 328 329 329 330 333 334
318 320 323 323 324 323 323 323 325 327 329 330 332 334 335 335 335 335 335 334 333 333 334 333 333 333 334 334 332 330 326 323 321 319 320 322 321 318 317 314 312 311 310 310 310 309 309 313 321 328 331 334 336 338 339 337 337 336 334 332 331 326 323 323 325 327 325 324 325 328 328 329 329 325 327 329 329 327 326 327 328 328 328 331 333
319 320 322 322 322 322 323 322 322 324 326 328 329 332 334 334 335 335 335 334 332 333 333 333 333 334 334 334 333 332 329 325 322 322 324 327 326 323 318 313 311 310 310 310 309 310 311 316 325 329 330 332 334 337 338 336 337 337 334 332 332 328 325 322 322 322 323 323 324 328 329 329 329 328 328 330 330 327 326 327 327 328 329 332 333
320 320 322 322 322 322 322 322 322 322 323 324 327 330 332 333 335 335 334 334 334 333 333 332 333 334 334 333 333 332 330 326 324 325 326 327 328 327 324 319 315 311 310 310 310 310 312 321 329 331 331 332 333 336 337 337 337 336 333 332 331 327 324 322 321 322 322 323 325 328 330 329 327 329 329 330 331 327 325 326 328 330 331 333 333
319 320 321 321 321 320 320 321 322 322 323 324 326 328 329 332 334 334 334 333 333 333 334 333 333 333 333 333 332 329 328 328 327 327 327 327 326 325 326 327 325 319 313 309 310 312 314 324 330 332 333 332 334 336 336 336 336 334 332 331 329 325 324 324 325 324 324 324 325 328 329 330 329 329 330 330 331 328 326 328 330 332 333 333 333
318 319 319 319 318 318 319 321 322 322 323 325 327 327 328 331 332 333 334 333 332 333 334 334 333 332 332 330 328 327 329 330 329 328 329 329 326 325 326 328 329 328 323 314 310 312 316 325 331 332 332 333 334 336 335 336 335 333 332 329 325 324 324 327 328 325 324 323 324 326 327 333 333 328 330 331 331 329 329 331 332 333 334 333 333
316 318 318 318 318 318 320 321 322 323 324 326 328 328 328 330 330 331 332 332 333 333 333 333 333 331 329 327 327 330 331 331 330 329 329 328 327 327 326 325 327 330 331 326 316 310 317 327 332 332 332 333 334 335 335 335 333 331 332 329 326 327 327 329 327 320 318 322 324 323 323 330 332 329 331 330 330 331 331 333 333 333 334 333 333
314 316 317 318 319 319 320 320 322 324 325 327 329 329 329 329 329 331 332 332 333 333 332 332 332 330 328 328 330 332 332 332 331 330 329 327 325 327 327 326 326 328 331 333 326 313 316 328 332 333 333 334 335 335 335 334 331 330 331 328 328 329 329 327 320 314 315 321 322 320 321 324 329 331 332 330 330 332 330 332 334 333 333 333 333
314 315 317 319 319 318 318 319 321 324 326 327 329 330 330 329 329 331 332 332 332 333 332 331 331 330 329 329 330 331 332 332 330 329 327 325 323 324 327 328 328 329 329 332 333 318 316 329 333 334 334 335 335 334 335 333 329 331 331 326 327 330 327 320 315 317 318 319 322 324 327 326 330 333 332 332 332 332 331 332 334 333 332 333 333
313 314 316 318 318 317 317 318 319 322 325 326 327 330 331 330 329 330 331 332 332 333 332 330 331 331 329 328 329 331 332 332 330 328 325 324 323 322 326 329 328 330 331 332 335 323 318 331 335 335 335 335 335 333 334 332 328 329 330 327 327 330 324 314 315 321 319 319 324 326 329 330 332 332 331 332 332 333 332 332 333 333 333 333 332
313 314 316 318 317 317 316 317 319 321 322 323 325 328 331 331 329 329 330 331 332 333 331 330 330 330 329 328 330 331 331 330 328 328 325 324 323 323 325 329 329 330 333 333 332 324 321 331 335 336 336 336 334 333 333 330 328 327 330 328 326 330 323 317 320 320 317 321 325 326 330 332 332 331 331 332 332 332 332 333 333 333 333 332 332
312 313 315 317 316 316 316 316 317 318 319 319 321 323 327 330 329 329 330 330 332 332 330 329 329 329 328 329 330 331 332 329 327 327 326 325 324 325 326 328 330 331 335 332 328 322 323 331 334 336 336 336 334 334 332 329 330 327 329 328 326 329 321 322 326 321 320 325 328 329 331 332 331 331 330 331 332 332 332 333 333 333 333 332 330
312 312 314 315 315 315 315 315 316 316 316 317 319 319 322 328 329 328 330 330 331 332 329 328 328 328 328 328 329 330 331 330 328 327 326 327 326 326 326 327 330 333 335 332 327 322 325 331 335 336 335 335 333 332 329 329 331 327 327 327 327 325 318 322 327 325 327 328 330 330 331 330 329 331 331 332 333 333 334 334 334 333 333 332 330
312 312 313 314 314 314 314 315 315 315 315 316 318 319 319 325 329 328 328 329 330 331 329 328 328 328 328 328 329 329 330 330 328 328 327 328 327 326 326 327 330 333 334 332 328 325 328 332 335 337 336 334 333 332 330 330 331 327 327 328 326 322 318 322 326 328 328 328 331 330 330 329 327 329 331 332 332 334 334 333 334 333 332 331 329
312 311 312 313 314 314 314 314 315 315 315 315 316 318 318 321 327 329 327 328 329 330 329 328 328 328 328 328 329 329 329 330 329 328 328 328 327 326 326 327 330 334 335 332 330 328 330 333 335 336 336 334 333 332 331 331 330 329 328 326 324 319 319 323 325 327 326 328 331 330 329 328 326 328 330 331 332 333 333 333 333 332 332 331 328
313 312 312 312 313 314 314 314 314 315 315 315 315 316 316 316 323 328 327 327 329 329 330 329 328 328 328 328 328 328 329 329 329 328 328 328 327 327 327 328 331 334 335 333 331 331 332 333 335 335 335 334 333 332 331 331 330 329 327 324 321 318 320 322 324 327 327 328 329 329 328 326 326 328 330 331 332 332 332 332 332 331 331 330 328
314 314 313 312 312 313 314 314 314 315 315 315 315 315 315 316 320 326 327 327 328 329 329 329 328 327 328 328 327 327 328 328 328 327 327 327 327 327 328 329 331 333 335 334 332 331 332 333 334 334 334 333 332 331 331 329 327 324 322 320 319 318 321 322 323 327 327 327 328 328 327 325 327 329 330 330 331 331 332 332 331 330 330 330 328
314 315 315 314 313 312 313 314 314 315 315 314 314 314 315 318 321 324 326 326 327 328 329 329 328 327 327 327 327 327 328 327 327 327 327 326 326 327 328 329 330 331 334 336 334 332 332 332 333 333 332 331 330 330 329 326 323 321 319 318 318 319 321 321 322 326 325 325 328 328 326 325 327 329 330 330 330 331 332 331 331 330 329 329 326
314 314 315 316 316 314 313 313 314 315 315 314 313 314 314 317 321 324 325 325 326 327 328 329 327 327 326 326 326 327 327 327 327 326 326 326 325 326 328 328 329 330 333 335 334 332 333 333 332 331 330 329 329 328 326 324 321 320 320 319 320 320 321 320 320 323 323 324 328 328 325 325 327 329 330 330 330 330 331 330 329 329 327 326 323
314 313 313 314 316 317 316 315 314 315 316 314 313 313 314 315 319 323 325 325 325 326 328 328 327 327 327 326 326 327 326 326 325 324 325 325 325 326 328 328 328 330 331 333 335 333 333 333 331 330 328 326 326 326 325 323 320 321 320 319 319 320 320 319 319 321 322 324 328 328 325 326 328 329 330 330 330 330 330 329 328 327 326 324 322
312 312 311 311 313 314 316 317 316 316 316 315 314 313 313 314 316 321 324 325 324 325 327 328 327 326 326 325 325 326 326 325 324 322 323 322 321 324 327 327 327 328 330 333 335 333 332 331 329 327 325 324 325 324 324 322 320 320 320 318 318 320 321 319 318 319 321 323 326 327 326 327 329 330 330 330 330 330 329 329 328 327 326 324 322
310 311 311 311 311 311 313 314 315 317 317 316 315 314 313 314 316 318 322 325 325 325 327 328 327 326 325 324 325 326 325 324 323 321 319 317 318 323 325 324 326 327 329 332 334 331 328 327 325 324 323 323 323 322 322 321 320 319 318 317 318 320 320 317 317 318 319 321 323 326 326 327 331 332 331 331 331 330 329 329 328 327 326 325 323
310 311 311 310 310 311 311 311 313 315 317 317 316 315 314 313 315 318 321 324 325 324 326 328 327 326 325 324 324 326 325 324 323 320 318 318 318 322 324 323 324 327 329 331 330 327 325 326 325 324 323 322 320 320 320 320 320 319 317 316 317 319 318 316 318 319 319 320 322 324 326 328 331 332 331 331 330 329 329 328 327 327 326 325 324
309 309 310 310 311 310 310 311 311 312 314 316 317 317 317 314 314 317 321 323 323 323 326 327 327 327 326 325 324 325 325 324 323 320 320 323 320 320 322 322 324 326 328 330 330 327 325 327 326 324 325 324 319 317 318 318 317 315 314 314 316 317 317 315 317 318 319 321 322 323 326 328 330 331 330 329 329 328 328 327 326 326 325 324 323
308 308 309 309 310 310 310 310 310 311 312 313 315 317 318 317 313 315 321 323 322 322 325 327 327 327 326 325 324 324 325 324 324 322 321 324 323 321 322 323 323 325 327 329 330 329 327 328 326 323 325 325 319 314 314 315 313 312 311 313 315 316 316 314 314 314 316 320 322 324 326 327 328 329 329 328 328 327 326 326 325 325 324 323 323
307 307 308 308 308 309 309 309 309 310 311 313 316 316 316 317 316 316 318 321 322 322 324 327 327 327 326 325 324 323 323 323 323 324 324 323 322 322 323 324 323 324 326 327 328 329 329 327 323 322 324 325 321 314 312 313 312 312 313 315 315 315 315 314 314 314 314 318 321 324 326 327 327 328 328 328 327 325 324 325 324 324 323 323 322
306 306 306 307 307 308 308 309 309 309 310 315 319 319 317 316 318 319 317 320 323 322 323 326 327 326 325 325 325 323 322 322 322 324 324 322 321 321 322 324 324 323 325 326 327 327 328 327 322 321 323 326 324 319 315 314 315 315 316 317 315 313 312 311 311 312 314 318 320 323 326 326 325 326 327 327 325 323 323 322 322 322 322 321 320
305 306 306 306 306 307 307 307 308 308 311 317 319 319 320 319 318 319 319 321 323 323 323 326 327 326 325 324 325 323 321 322 322 324 325 322 321 321 319 321 324 324 324 325 326 326 327 327 324 321 320 323 325 322 318 317 317 318 318 317 315 313 311 308 308 310 313 318 320 323 324 324 324 325 325 325 323 322 321 320 320 321 321 320 319
302 304 305 306 306 306 306 307 308 307 310 317 319 319 321 321 319 318 318 320 322 323 324 325 326 326 324 324 324 323 321 321 322 324 325 323 322 321 318 318 322 324 323 323 324 325 325 326 326 323 320 322 323 321 319 318 319 319 319 319 318 315 310 308 309 311 315 319 322 323 323 322 323 323 324 324 322 320 320 319 320 321 320 320 320
300 300 301 303 303 303 304 306 307 307 308 313 318 320 320 320 320 317 317 319 320 322 325 325 325 325 324 323 324 324 321 320 322 323 325 325 323 322 320 318 321 323 322 322 323 323 323 324 324 324 322 322 322 320 319 319 319 319 319 320 320 315 311 311 313 314 318 321 322 322 322 321 321 322 323 322 321 319 318 319 321 321 320 319 319
299 299 300 300 301 301 302 303 305 306 307 310 314 319 320 320 321 318 317 319 319 321 323 324 324 325 323 323 324 324 322 320 321 323 324 324 322 321 320 319 321 323 322 322 321 319 321 322 321 321 322 322 321 320 320 317 316 319 320 318 316 314 314 316 316 317 320 321 322 321 321 321 320 321 321 321 320 318 316 318 320 320 320 319 318
298 299 299 300 300 301 302 303 303 303 305 307 311 315 318 319 319 318 318 319 320 321 321 321 322 323 323 323 324 324 323 321 320 321 323 323 321 319 318 318 320 322 322 321 319 318 320 320 318 318 320 321 321 319 320 317 315 319 319 313 311 311 314 317 318 318 320 320 320 320 320 320 320 320 320 320 320 317 316 317 319 320 319 318 318
298 298 299 299 300 300 301 303 303 302 303 304 306 311 314 317 318 318 319 319 319 320 320 320 320 322 323 323 324 324 323 322 321 320 321 321 320 320 317 317 319 322 323 321 319 319 319 319 318 319 318 319 322 319 319 319 318 319 318 314 310 308 311 316 317 317 318 319 318 319 319 319 320 320 319 320 318 317 316 316 318 319 318 317 317
297 298 298 299 299 300 301 302 302 303 303 303 303 305 309 315 318 319 319 319 318 318 318 318 317 319 322 323 324 324 323 322 322 321 321 320 319 319 317 315 318 322 322 320 318 320 319 319 320 321 317 316 320 320 319 320 319 319 319 317 312 307 309 313 315 316 317 318 318 318 319 319 320 320 319 319 317 316 316 315 317 317 316 317 316
297 297 298 298 299 299 300 300 301 302 303 303 303 303 304 309 316 319 319 319 318 317 317 316 316 317 319 322 324 324 323 322 322 322 322 321 318 318 318 314 316 321 322 319 319 320 319 320 320 320 318 315 317 320 320 320 319 319 319 318 314 310 311 313 314 315 316 318 318 318 318 319 319 319 318 318 317 316 315 314 316 315 313 314 314
296 296 297 298 298 299 299 299 300 300 301 302 304 304 303 305 311 316 318 319 319 318 318 317 316 315 316 321 323 324 324 323 323 322 322 322 318 317 318 315 314 319 322 319 320 320 319 321 319 317 318 318 316 317 317 318 319 318 318 317 313 312 315 315 314 315 316 317 318 318 318 318 318 318 318 317 316 316 314 314 316 314 312 313 313
296 296 297 297 297 298 298 299 299 300 300 301 304 307 305 305 307 312 315 317 318 319 319 318 317 316 315 318 322 324 324 323 323 322 321 322 320 318 319 317 312 316 321 320 319 320 319 319 319 317 318 319 316 312 313 316 318 318 318 316 312 313 316 316 315 316 318 317 317 318 317 317 317 317 318 317 316 315 314 315 316 315 314 315 315
296 296 296 296 297 297 298 298 298 299 301 301 304 308 308 308 308 311 313 315 316 317 318 318 319 319 317 316 319 323 324 323 324 323 322 322 321 319 319 319 314 313 320 321 319 319 318 317 318 319 316 315 314 310 312 318 318 318 319 316 313 314 315 316 316 315 317 318 317 317 317 317 317 317 317 316 314 313 314 315 316 315 315 315 316
296 295 296 296 296 296 296 297 298 299 301 303 304 307 309 309 309 309 311 313 313 315 317 318 318 319 320 319 318 320 322 324 324 323 323 322 322 321 319 320 317 313 317 322 319 317 317 316 317 319 315 311 312 311 312 316 315 315 318 317 316 317 317 317 316 315 317 319 317 316 316 316 317 318 317 315 314 312 313 314 315 315 315 315 316
296 295 295 295 295 295 295 296 297 297 299 302 305 306 307 309 310 307 308 312 312 312 315 317 317 316 317 319 320 320 319 321 323 323 323 322 322 321 319 320 320 317 318 321 319 316 316 315 315 317 315 312 312 311 310 313 311 311 316 318 318 318 318 318 318 317 318 319 317 316 316 316 317 318 317 315 314 313 313 314 314 314 315 315 315
296 296 295 295 295 295 295 295 295 296 297 300 302 305 307 308 309 306 306 309 310 311 313 315 317 317 315 316 319 320 319 319 321 322 323 322 322 322 320 319 320 319 319 320 318 316 316 316 314 315 316 315 313 311 311 311 310 311 314 316 317 317 317 317 319 318 319 320 318 316 315 315 315 317 317 316 315 314 314 314 314 315 315 316 316
295 296 295 295 295 295 295 295 295 295 296 298 299 301 304 306 308 307 305 305 306 309 312 313 316 319 319 317 317 318 319 319 319 320 322 323 322 322 320 319 319 319 320 320 318 316 315 316 316 315 316 315 312 311 314 312 310 312 315 314 315 317 315 316 318 317 318 320 318 316 315 314 314 315 316 316 315 315 315 314 314 314 315 315 316
295 295 295 295 295 295 294 294 295 294 295 297 298 298 300 302 304 307 307 307 306 307 310 312 314 316 318 318 318 317 319 320 319 319 321 322 322 321 320 319 318 318 319 320 319 317 316 317 317 316 317 314 310 312 315 315 313 315 316 313 313 315 315 316 317 316 316 318 318 316 315 314 314 314 315 315 314 315 315 315 315 315 314 315 315
295 295 295 295 295 295 294 294 294 294 295 296 297 297 297 298 300 303 306 308 307 306 308 312 313 314 316 317 315 314 317 319 320 320 321 321 321 321 320 320 319 318 318 319 319 317 316 316 316 317 316 313 310 312 314 316 316 314 313 311 310 313 314 315 317 316 314 315 316 316 315 314 315 315 314 314 313 313 314 315 315 315 314 315 314
294 294 294 295 295 295 294 294 294 294 294 295 296 296 296 296 297 299 303 306 308 308 308 311 312 313 314 316 315 313 314 316 318 319 321 320 319 320 320 320 318 318 318 318 318 318 316 315 316 317 315 311 310 311 312 314 314 311 311 311 310 311 312 314 316 317 315 314 314 316 315 314 315 315 314 314 313 312 312 313 313 313 313 314 314
294 294 294 295 295 295 294 294 294 295 295 294 295 296 295 296 296 296 299 303 307 308 309 310 310 311 312 313 315 316 316 316 315 315 318 320 319 319 320 320 319 319 318 317 316 317 317 316 316 317 314 311 311 311 312 313 312 311 310 310 311 310 311 312 314 316 316 315 314 314 315 315 315 315 314 314 313 313 313 313 312 312 312 312 313
294 294 294 294 294 295 294 294 294 295 295 294 294 295 295 295 296 296 296 299 303 306 309 309 309 310 311 311 314 316 317 317 315 314 316 319 319 318 319 319 319 319 318 317 315 316 317 317 316 316 314 312 312 312 314 315 312 311 310 310 311 310 310 310 312 314 315 316 315 314 315 315 315 315 315 315 315 314 314 314 313 313 312 312 312
294 294 294 294 294 294 294 294 295 294 295 295 294 294 295 295 295 296 295 296 298 301 305 308 308 308 310 311 312 315 317 316 315 314 315 318 319 318 318 319 318 318 318 317 317 315 315 316 316 315 314 313 313 312 314 315 313 311 311 310 310 310 309 309 309 311 314 315 314 314 314 314 314 315 315 314 315 315 314 314 314 313 313 312 312
Wind_Speed
9 11 12 13 14 15 15 15 15 15 15 15 16 16 16 16 16 15 16 16 15 14 14 14 12 12 14 14 15 16 18 20 20 21 23 24 25 24 22 21 20 20 18 16 15 15 14 14 16 18 19 20 19 21 23 24 25 25 23 22 22 22 25 25 20 19 17 16 15 14 13 11 11 12 13 13 13 14 16 18 18 18 17 18 17
8 10 13 14 15 16 16 16 16 15 16 16 17 17 17 17 17 17 17 17 16 15 15 14 13 13 15 15 16 17 18 20 20 21 22 24 25 26 25 23 22 21 20 17 16 16 15 15 16 20 21 19 19 22 24 24 26 25 22 21 22 24 27 24 21 19 18 17 15 13 11 10 10 11 12 13 13 14 16 17 16 15 17 18 17
10 11 12 14 15 16 16 17 17 16 16 16 17 17 17 18 18 18 18 17 16 16 16 15 14 14 15 15 15 17 18 19 20 20 22 23 24 25 25 23 22 22 21 18 17 16 16 16 17 21 22 18 19 22 24 24 26 26 22 23 24 26 27 24 21 20 18 17 15 13 11 11 11 11 13 14 13 14 15 16 15 14 16 17 16
13 11 12 14 15 16 16 16 16 17 17 17 18 18 18 19 19 19 19 18 18 18 17 17 17 16 16 15 15 15 17 18 19 20 21 23 24 25 25 23 22 22 21 19 18 17 17 17 17 22 22 19 19 22 25 25 26 26 23 24 25 26 25 23 22 20 18 16 14 13 11 11 11 12 14 14 13 14 15 16 15 13 15 16 15
13 10 10 12 13 14 15 15 16 17 17 18 19 19 19 19 20 19 19 19 19 19 18 18 18 18 17 15 15 15 15 16 18 19 19 21 22 23 23 21 20 21 20 19 18 18 18 17 18 22 23 19 19 22 25 25 27 27 25 25 24 24 23 22 21 20 18 16 14 13 12 12 12 12 13 13 14 15 16 16 15 14 15 16 16
10 10 9 10 12 12 13 14 14 15 17 18 19 19 20 20 20 20 20 19 19 19 19 19 18 18 17 16 17 16 16 14 15 16 15 17 18 18 19 19 19 20 20 19 19 18 19 18 17 21 24 22 20 23 25 25 28 28 27 26 24 23 22 22 20 18 16 14 13 13 12 14 14 14 14 14 15 16 16 16 15 16 16 17 17
10 11 11 11 11 12 13 14 14 15 17 18 19 20 20 21 21 20 21 20 19 19 19 18 17 18 18 17 17 17 16 15 14 14 14 15 16 16 16 16 17 19 20 20 19 19 19 18 18 22 24 24 23 25 27 27 29 28 27 26 23 21 20 19 18 16 14 12 13 13 14 15 15 15 15 15 16 16 16 15 16 17 17 18 18
13 13 14 14 15 16 17 17 17 17 19 19 18 19 20 21 22 21 22 21 20 19 18 18 17 18 18 18 18 17 16 14 12 12 13 14 16 17 16 15 16 18 20 21 20 19 19 19 19 23 24 24 25 27 29 29 29 28 28 26 23 20 18 17 16 14 13 13 14 14 15 15 16 16 16 17 17 17 16 16 17 18 19 19 19
16 17 18 18 19 20 19 20 20 19 21 21 19 19 20 21 22 22 22 22 21 20 18 17 17 17 17 18 18 17 16 14 12 12 13 13 15 16 16 16 16 17 19 21 21 21 20 19 21 24 25 25 27 29 32 32 31 29 28 26 23 20 18 17 15 14 13 14 15 16 17 16 16 17 18 19 18 18 18 17 19 20 20 20 19
17 19 20 20 20 19 20 21 22 21 22 22 22 21 20 21 21 22 23 22 21 21 19 18 18 17 17 17 17 16 15 15 14 15 15 14 15 15 16 17 18 18 19 20 21 23 21 21 24 26 27 28 29 31 34 35 33 31 29 26 23 21 19 17 15 14 13 14 15 17 19 18 16 17 20 20 19 19 20 21 21 21 20 20 20
18 19 20 20 20 19 20 22 23 23 23 24 24 23 22 21 22 22 23 22 21 21 20 19 18 17 16 17 17 16 16 17 16 16 16 15 14 14 15 17 18 19 20 20 21 23 22 23 26 27 26 28 32 34 35 36 35 31 29 28 24 21 19 16 14 13 13 14 15 16 18 19 17 18 21 20 20 22 23 23 22 21 20 20 20
18 19 20 20 20 19 20 22 23 24 24 25 26 26 24 22 22 22 23 23 22 21 20 20 19 18 18 18 18 18 18 18 18 17 16 16 15 15 15 16 17 19 20 21 21 22 23 24 28 28 27 29 35 37 36 36 35 31 27 29 27 21 19 15 14 13 14 15 15 15 16 17 17 19 22 21 23 24 24 24 22 22 21 20 21
19 19 20 20 20 20 21 22 24 24 25 25 26 27 26 25 23 22 24 24 24 23 21 21 20 19 20 21 20 20 19 19 19 18 17 17 16 16 16 15 16 18 19 20 20 20 23 26 29 28 28 32 38 39 39 36 35 33 29 31 30 22 17 15 14 14 16 17 15 17 17 16 18 20 21 22 24 24 24 24 23 22 22 21 22
20 20 20 21 21 21 22 24 24 25 24 25 26 27 28 28 25 24 25 25 25 25 23 23 22 20 21 22 22 21 20 20 20 19 18 18 18 18 17 15 15 16 16 17 18 20 24 27 28 25 28 36 39 41 42 37 35 35 32 31 32 23 16 14 13 15 18 18 17 17 16 15 18 20 21 23 25 23 24 25 24 24 23 23 23
19 20 21 22 22 23 24 24 25 25 25 25 26 27 29 30 28 26 26 26 26 26 25 24 23 22 23 23 23 23 22 22 21 20 20 19 19 18 17 15 14 15 14 14 16 21 25 26 27 25 30 37 39 41 42 38 34 36 34 31 31 23 16 15 14 15 17 17 18 18 15 16 19 20 21 22 23 24 26 26 25 25 24 25 24
17 19 22 23 23 24 25 26 26 26 26 27 27 27 28 30 30 29 28 27 28 27 26 25 24 24 24 24 24 24 23 23 22 22 21 20 19 19 17 15 15 14 13 14 17 22 24 24 24 27 33 36 38 39 39 37 34 36 34 32 30 22 17 18 17 16 16 16 19 19 17 19 20 20 22 23 24 26 27 27 27 27 27 26 25
16 18 21 24 25 25 26 27 27 27 27 28 28 28 29 30 30 30 30 28 29 28 26 26 25 25 25 25 25 25 24 23 23 22 21 20 20 19 17 16 15 13 12 15 18 21 22 19 20 30 36 37 39 37 36 36 33 35 35 33 29 22 19 20 19 17 17 18 20 20 19 21 21 20 22 25 26 26 27 29 28 27 27 26 26
17 18 20 23 26 27 27 28 28 29 29 29 30 30 31 31 30 31 31 29 30 29 28 28 27 26 26 26 26 25 24 23 23 22 20 20 19 18 18 17 15 12 13 15 18 20 19 16 21 31 35 36 37 35 35 34 33 35 34 32 28 22 20 20 20 19 19 21 22 20 20 21 20 20 21 24 26 27 28 29 28 27 27 26 27
20 19 20 22 25 27 28 29 29 29 30 31 32 32 31 31 31 31 32 31 30 30 30 29 29 27 26 27 27 26 25 24 23 22 21 19 18 18 18 17 14 13 15 17 18 19 17 19 26 30 31 32 33 33 34 34 35 36 32 30 27 23 20 19 20 20 20 23 22 20 20 19 20 21 23 25 26 27 28 30 30 29 28 26 27
27 24 22 22 24 26 29 30 30 30 31 32 33 33 31 30 31 31 32 32 31 31 31 31 30 28 27 28 27 26 26 25 23 22 21 20 19 19 18 17 14 13 16 18 19 19 18 23 30 30 31 34 34 34 34 33 33 32 29 28 26 23 20 20 20 21 20 22 21 20 20 20 20 21 23 25 26 27 29 31 31 30 29 26 27
32 31 28 26 25 26 28 31 32 31 31 31 33 33 31 30 30 31 32 32 32 32 31 31 30 29 28 29 29 27 27 25 24 23 22 21 21 19 18 18 16 14 17 19 19 20 20 24 30 32 33 35 35 34 34 34 32 31 29 28 28 26 23 20 20 20 19 21 22 21 20 20 20 21 22 25 28 29 30 31 31 30 28 26 27
33 34 33 32 29 29 29 31 33 33 32 31 31 32 32 31 30 30 31 32 33 32 32 31 31 30 28 30 30 29 27 25 23 24 22 21 21 19 19 19 17 15 17 20 21 23 22 25 30 31 33 34 33 31 32 33 33 31 29 29 28 26 23 19 19 20 17 20 23 22 21 20 20 22 23 26 28 29 29 29 29 29 27 25 25
28 29 32 33 32 32 33 34 34 35 35 33 32 32 32 32 31 29 30 32 33 33 33 31 32 30 29 30 30 29 27 24 24 25 23 21 21 19 19 19 17 15 15 20 23 25 27 30 33 32 34 34 31 30 32 33 32 30 29 29 26 24 23 19 18 20 17 20 23 21 21 21 21 23 24 26 28 29 28 26 26 27 26 24 23
24 24 25 27 29 30 32 35 37 37 38 37 36 34 33 34 33 30 30 31 33 34 34 32 32 31 29 29 29 30 28 25 26 26 23 21 20 19 21 19 17 16 16 20 25 28 32 34 32 30 32 34 31 30 33 34 33 31 29 27 23 22 23 17 15 20 20 21 22 21 21 21 22 24 25 26 26 26 25 24 24 25 25 24 21
26 22 21 22 23 25 27 31 35 38 40 40 40 38 36 35 35 33 32 31 33 35 34 34 33 32 29 27 29 31 28 27 27 26 22 21 20 19 21 20 17 18 17 21 28 28 27 28 26 25 29 33 34 34 35 35 33 31 28 24 22 21 20 15 15 19 21 22 23 22 19 21 23 24 26 27 26 25 24 24 24 24 24 23 21
28 25 23 23 21 21 23 24 28 33 38 41 42 41 40 39 37 36 35 34 35 36 36 35 34 33 30 28 31 32 29 29 29 27 23 20 20 19 20 20 19 20 19 22 25 22 19 22 22 22 25 29 33 36 36 36 34 31 27 23 22 20 16 15 18 20 21 22 25 23 19 22 23 23 25 27 26 26 26 25 23 23 22 21 20
32 29 27 25 23 22 23 22 22 26 31 36 40 40 41 42 41 38 38 37 37 38 38 37 35 34 32 30 31 33 32 31 31 29 24 20 20 21 21 21 22 22 21 21 22 20 19 23 24 22 25 28 29 32 35 34 32 31 28 25 22 19 17 18 20 22 22 22 24 25 20 20 22 24 25 25 25 26 26 24 22 21 20 20 20
34 33 31 29 27 24 24 23 22 22 25 29 34 38 40 42 43 41 39 40 40 40 40 39 37 35 34 32 32 34 34 34 33 31 28 24 22 22 23 23 24 24 24 22 21 22 23 25 26 24 27 31 27 26 31 29 27 27 27 26 22 19 17 16 17 19 22 22 23 24 21 18 20 22 23 22 23 23 24 23 21 20 21 21 21
37 36 35 33 31 29 25 24 24 22 23 25 28 34 38 40 41 41 40 42 43 42 41 40 40 38 36 35 33 34 36 36 35 34 31 27 25 24 24 25 27 28 27 25 23 24 26 27 27 26 29 32 27 24 26 26 25 25 26 25 23 20 17 15 16 17 20 23 22 22 20 19 18 18 20 21 20 21 21 21 21 20 21 22 22
39 39 38 37 35 34 30 26 24 22 22 24 25 28 33 36 37 38 40 42 43 44 44 42 41 40 39 37 35 34 36 38 36 35 33 29 27 27 26 25 29 32 29 28 25 23 27 30 29 28 30 32 29 25 25 26 26 26 25 23 22 21 20 18 18 18 20 23 22 21 21 20 19 17 18 20 18 19 20 21 21 21 21 22 22
38 38 39 40 39 39 36 31 26 22 21 22 24 25 27 32 34 36 38 38 41 45 44 43 41 40 41 39 37 36 37 39 38 37 35 32 30 28 27 26 28 32 31 29 28 25 27 31 30 27 29 30 29 26 26 28 29 27 24 22 21 21 21 21 21 21 22 23 22 23 22 19 19 18 17 17 17 18 20 20 21 22 21 22 22
39 38 38 40 41 42 40 38 32 25 21 21 23 24 26 29 31 33 37 37 39 42 40 42 42 40 43 42 39 39 38 39 40 39 38 36 33 31 30 28 29 33 34 31 30 28 26 29 29 27 28 29 29 28 29 30 30 27 24 22 22 22 24 26 25 24 25 25 23 23 21 19 18 19 17 17 17 18 20 21 23 23 23 23 23
40 39 38 38 40 42 42 41 39 33 25 21 21 23 25 27 30 31 34 38 40 42 39 40 42 41 44 44 41 41 40 40 41 41 40 37 36 34 33 31 31 35 37 33 31 29 27 27 28 28 29 31 32 32 33 32 30 28 26 24 22 22 26 29 29 28 29 29 26 22 21 20 21 20 19 18 19 20 22 23 25 24 23 23 24
40 40 38 38 38 40 40 41 40 39 35 25 20 22 25 26 30 30 32 38 41 44 43 41 41 43 45 45 42 42 42 41 43 44 41 38 37 37 36 34 34 36 37 35 32 29 29 30 29 30 30 33 35 35 35 32 30 30 28 25 22 22 25 29 29 29 31 32 29 25 22 22 23 22 21 21 22 23 23 25 26 23 23 23 23
40 40 38 37 36 35 36 37 39 39 39 34 24 21 24 26 29 29 30 36 40 44 46 44 43 44 45 45 44 44 43 42 43 45 43 40 39 39 38 37 37 39 38 36 35 32 32 33 33 33 32 34 36 33 33 33 31 31 29 26 24 22 24 28 28 28 29 31 30 28 25 24 24 24 23 23 24 23 23 26 26 23 23 24 23
41 39 38 37 36 34 32 33 35 37 37 36 32 26 23 24 27 28 28 33 39 42 44 45 46 46 46 46 45 46 46 44 44 45 45 42 41 40 39 40 41 42 41 39 36 35 35 36 37 38 35 36 36 32 32 33 32 32 29 26 25 23 24 26 27 27 27 28 29 28 27 26 26 27 26 25 24 23 22 24 25 23 23 24 24
40 38 36 36 35 34 33 32 33 34 36 36 35 32 28 25 26 27 27 31 37 42 43 44 46 47 47 47 47 48 47 45 45 46 46 46 43 40 40 42 42 44 45 40 35 37 38 40 41 41 38 38 36 33 33 34 34 33 29 25 24 24 24 25 27 27 26 26 27 29 30 29 29 29 28 26 25 24 22 22 24 23 22 23 24
40 37 35 34 34 34 33 33 33 33 35 35 35 33 31 28 25 26 27 30 34 39 43 44 45 47 49 48 48 50 49 47 48 48 48 47 45 40 40 42 42 44 46 39 35 38 38 38 41 41 39 39 38 36 35 36 36 33 29 25 24 25 25 25 26 27 27 26 26 30 32 32 30 29 28 27 26 26 24 23 23 20 21 24 24
40 38 36 35 34 34 34 34 34 34 34 34 34 32 32 30 26 24 26 29 32 36 40 43 45 46 48 48 49 51 51 50 50 50 49 47 45 41 40 42 41 43 45 40 37 39 37 37 40 42 40 39 40 39 37 36 36 32 29 27 26 27 27 26 26 28 29 29 29 31 33 32 30 29 28 28 28 27 26 26 24 21 22 24 23
37 36 36 36 36 36 36 36 36 35 34 34 33 31 31 31 28 25 25 27 31 36 39 41 43 44 45 47 49 51 52 53 52 51 50 48 45 43 42 42 42 42 44 44 43 43 41 39 41 44 44 42 40 40 38 37 37 34 31 30 29 29 28 27 28 28 28 32 34 32 32 31 30 30 30 29 28 27 27 28 27 26 25 26 24
37 34 34 35 37 38 39 38 37 35 33 32 31 29 29 30 29 27 25 25 29 34 38 39 41 42 43 44 47 51 53 53 53 52 51 48 45 45 44 42 44 45 47 49 48 46 44 41 42 46 48 46 44 44 41 40 39 37 34 33 31 31 30 27 28 27 27 34 37 33 31 30 30 31 31 29 28 28 29 30 30 29 28 28 28
37 35 32 33 35 37 40 41 39 35 31 29 29 28 27 27 27 28 27 26 28 31 36 40 41 40 40 42 44 48 50 50 52 53 51 48 46 46 45 43 44 46 48 51 49 45 45 45 45 47 48 47 47 49 47 44 43 41 39 37 32 31 30 28 28 26 27 35 37 33 32 30 29 31 31 31 31 31 31 31 31 30 30 30 30
34 34 32 33 34 36 39 42 42 39 32 29 28 27 27 26 25 28 29 28 28 28 32 38 41 40 39 41 44 46 47 46 48 51 50 49 48 48 46 43 44 45 48 51 49 46 47 50 50 49 49 48 48 50 51 48 47 45 41 38 35 33 29 28 29 26 29 37 37 33 32 31 30 31 33 32 32 33 32 31 30 29 29 29 29
30 31 34 35 36 37 38 39 42 42 37 32 30 29 28 25 24 27 29 29 30 28 29 33 38 42 39 38 41 45 46 46 47 48 50 52 51 49 48 46 44 45 48 50 50 49 51 53 52 52 53 53 51 51 52 51 51 51 46 40 36 32 28 30 31 27 31 38 38 33 32 31 32 33 34 33 32 32 32 31 30 29 28 27 27
29 30 34 35 35 37 39 39 41 42 39 35 32 32 31 29 26 26 28 30 31 30 30 33 35 39 42 39 38 42 46 48 47 46 48 53 53 50 48 48 44 44 48 52 51 50 52 55 54 54 56 57 55 53 51 51 53 54 51 44 36 29 28 32 32 28 33 40 38 35 33 32 33 34 34 33 32 30 29 29 29 28 27 26 26
33 32 34 36 34 36 39 38 40 40 38 35 34 34 35 35 34 30 28 30 31 31 32 35 35 36 41 42 38 40 45 48 49 48 47 49 52 51 48 47 45 45 49 52 52 49 51 55 56 56 57 56 55 54 53 51 49 48 48 46 40 34 36 38 32 28 34 39 40 38 36 35 35 34 34 33 31 30 29 28 28 28 27 26 26
37 35 36 37 35 36 39 37 38 40 38 34 33 35 36 37 38 35 29 26 30 33 32 34 35 36 39 43 43 41 43 46 48 49 48 48 51 52 50 48 48 49 51 50 49 50 52 56 55 55 56 55 54 55 55 51 47 44 43 44 41 36 40 43 39 34 34 35 38 40 38 37 37 36 35 33 32 31 30 29 27 27 27 26 26
39 39 38 38 37 39 41 38 35 37 38 35 32 33 35 35 37 38 33 27 26 30 32 32 33 34 35 39 44 43 41 43 45 47 47 46 49 53 51 50 50 52 54 53 50 51 55 56 54 53 54 55 54 55 56 53 49 46 44 44 40 35 37 41 40 38 36 34 36 39 39 39 39 38 37 34 33 32 31 30 28 27 26 26 27
40 41 40 38 38 40 42 40 36 34 36 38 35 33 34 34 35 37 37 33 27 27 29 31 32 33 32 34 38 41 40 40 42 45 47 45 47 52 54 53 53 54 55 55 53 53 55 56 55 54 55 56 54 53 54 54 51 49 47 44 41 38 37 38 39 39 37 35 34 37 39 39 39 38 37 36 34 33 32 31 29 27 26 26 26
41 42 41 39 39 42 42 40 38 36 35 38 38 37 36 36 36 35 37 36 33 29 27 29 31 32 32 32 34 39 39 40 40 42 47 49 47 49 53 55 55 56 55 54 54 55 54 53 55 57 58 58 56 54 53 53 51 49 48 46 44 43 40 38 40 40 38 36 34 37 39 39 40 39 38 38 37 36 34 32 31 29 28 27 26
43 42 42 41 41 43 44 41 40 40 37 37 40 40 38 37 36 36 37 37 36 34 30 29 30 30 31 32 32 37 41 42 43 42 46 51 51 50 50 53 55 56 56 54 55 57 54 52 55 58 58 57 57 55 54 53 51 49 48 49 48 47 45 42 43 43 41 39 37 38 39 38 38 39 39 38 37 37 36 33 32 31 30 29 28
Wind_Direction
289 267 255 246 245 235 228 227 231 230 228 227 224 222 219 217 219 225 232 239 242 246 253 257 261 268 268 264 265 268 270 270 270 272 272 271 270 269 267 265 265 266 265 261 256 249 241 229 223 224 229 223 217 216 206 194 193 197 197 196 195 192 193 189 176 174 176 176 175 165 163 164 151 137 131 133 137 137 134 132 134 137 138 138 137
303 271 256 245 243 236 230 229 230 227 226 225 225 225 220 217 218 227 235 240 246 249 250 255 261 268 272 269 265 262 265 268 271 273 272 270 269 268 267 264 263 262 259 257 252 247 240 229 220 224 230 223 217 214 205 196 194 196 194 193 192 191 192 187 177 178 177 175 172 163 164 168 161 152 144 143 142 142 138 134 136 140 142 143 141
306 275 256 244 240 236 233 231 232 229 228 225 225 225 223 221 222 229 235 241 247 248 246 249 258 263 267 270 268 263 260 262 266 269 271 270 268 267 265 263 260 257 255 252 248 244 239 229 218 224 231 221 215 213 203 194 195 195 191 193 192 190 190 187 181 179 177 173 169 164 167 169 170 163 153 153 152 150 146 143 144 148 149 147 146
304 278 254 245 239 234 231 230 233 233 231 227 227 227 227 228 229 233 235 241 246 246 244 247 255 258 260 263 266 266 262 260 261 265 269 270 269 268 266 263 258 253 250 248 245 242 237 229 217 221 231 221 212 211 203 197 198 194 191 194 192 191 190 187 181 178 178 177 172 166 170 173 173 168 162 164 164 161 156 151 153 156 154 151 149
298 273 250 238 232 230 227 229 233 234 232 229 230 231 230 232 234 236 236 241 245 246 246 249 254 257 257 257 260 263 264 263 259 261 266 270 272 271 267 262 255 250 246 245 242 239 235 227 217 220 229 224 213 208 201 199 199 191 189 193 190 189 186 183 179 178 181 180 173 167 174 178 177 177 176 179 173 169 163 155 158 161 160 159 156
281 257 240 229 228 228 228 230 233 233 233 232 233 233 231 233 235 236 239 242 244 246 248 251 252 254 256 255 258 261 265 266 258 255 259 266 272 272 268 259 251 247 245 244 240 236 232 224 217 221 227 224 217 210 202 198 194 184 185 190 189 187 184 182 179 179 181 179 176 173 180 182 182 185 185 187 180 175 168 160 161 162 162 163 160
259 243 232 228 234 239 239 237 237 235 235 235 234 234 234 235 236 237 242 243 241 242 246 249 247 249 254 256 260 263 266 265 256 250 252 259 265 268 266 259 254 251 247 245 239 233 228 222 218 222 225 223 220 213 203 196 190 185 189 189 185 185 185 184 182 182 180 181 184 179 182 186 186 186 189 189 184 178 171 168 167 164 163 163 160
253 246 241 242 249 254 252 246 244 240 236 235 233 234 234 234 236 238 243 244 241 240 242 245 244 245 250 256 261 264 262 255 249 245 247 252 258 261 259 257 258 257 253 246 238 230 224 223 221 225 226 221 218 210 200 195 189 190 192 188 183 182 187 187 185 184 183 186 188 182 182 187 188 189 192 190 185 179 173 173 171 166 166 165 162
256 250 252 253 255 257 253 248 245 241 238 235 233 233 233 233 235 238 242 244 242 242 241 242 244 245 248 254 257 257 253 245 239 237 238 245 250 251 252 253 255 258 258 249 239 230 222 223 225 227 229 224 218 208 202 196 191 194 192 188 189 187 190 192 189 187 192 196 191 185 183 185 188 190 192 188 184 179 173 174 175 168 166 166 164
265 255 256 258 257 255 250 247 243 240 238 237 234 233 234 233 234 237 240 241 241 240 239 240 241 245 248 250 252 247 243 238 234 234 234 239 245 243 245 249 251 252 253 251 242 231 222 225 230 228 229 229 219 209 208 200 192 196 192 185 189 189 189 195 194 192 197 200 191 186 187 186 186 189 190 188 184 178 175 175 175 171 168 166 164
271 260 257 257 256 254 248 246 243 240 238 238 237 236 235 234 235 236 239 240 239 237 236 236 236 239 242 243 243 239 237 234 232 234 236 240 245 242 243 246 249 249 249 248 242 234 224 227 236 233 232 229 216 209 208 200 191 191 188 183 187 189 189 199 200 196 199 193 183 181 184 182 182 189 189 186 182 179 177 176 174 172 170 165 162
272 264 257 255 254 252 248 246 244 241 239 239 239 239 237 236 236 235 236 238 236 234 234 232 230 232 234 235 235 233 233 233 233 234 238 244 245 243 242 245 249 250 247 244 242 235 223 230 240 237 234 222 208 204 197 193 191 189 191 192 194 194 190 202 201 193 194 183 172 170 173 177 182 188 186 182 181 179 176 176 174 172 168 164 160
271 265 257 254 253 250 248 248 246 242 241 242 242 241 238 237 238 237 234 234 234 231 230 226 225 228 230 231 231 231 231 233 236 236 239 244 246 244 242 245 250 250 247 242 241 231 222 233 238 231 226 211 200 198 193 192 193 192 195 196 195 194 189 198 195 188 184 170 164 167 168 177 184 184 182 179 179 178 174 174 173 170 166 163 159
270 265 258 253 251 250 248 247 246 243 244 244 245 244 241 239 240 240 236 233 233 231 228 224 222 223 226 230 232 232 231 233 236 237 240 244 246 244 242 246 251 249 244 240 237 225 219 231 240 230 213 203 198 196 195 197 195 195 198 197 195 192 186 190 189 187 177 161 159 166 169 179 182 177 178 178 175 176 175 172 171 167 162 160 156
274 265 258 253 250 249 248 246 245 244 246 246 245 246 246 244 241 242 239 234 233 232 230 225 223 222 225 228 232 233 231 232 235 236 240 245 246 243 241 244 249 248 243 236 231 221 219 231 241 229 203 194 194 195 195 196 195 195 197 197 197 192 183 181 180 181 172 162 162 166 175 180 177 173 175 176 173 173 172 168 167 165 161 158 155
286 271 260 255 250 247 247 245 245 245 247 247 246 246 248 246 243 242 242 238 234 235 232 227 224 223 225 227 230 232 232 231 233 236 240 245 247 245 243 245 249 247 238 229 227 222 223 233 230 207 195 189 188 191 191 193 193 195 197 196 194 186 175 177 174 172 170 167 166 167 176 175 170 169 170 171 169 168 166 164 163 160 157 155 154
297 282 268 259 255 250 247 245 245 246 247 247 247 246 248 248 244 242 244 242 237 237 234 229 227 225 225 226 229 231 232 231 231 234 238 242 245 246 244 243 246 243 232 226 228 225 226 232 214 188 185 185 184 188 190 192 193 194 195 192 188 175 167 176 175 171 170 168 166 165 170 169 168 169 168 167 164 163 161 159 158 155 153 153 153
303 292 279 267 259 255 250 248 246 247 247 246 247 247 248 248 245 243 245 244 239 238 237 232 229 228 226 226 228 231 233 233 233 234 236 242 244 243 241 240 241 233 221 221 224 225 224 214 196 186 182 181 183 188 191 192 192 189 187 183 176 163 160 171 175 175 174 169 165 164 167 166 168 175 174 171 166 162 160 158 156 154 152 152 153
308 298 289 278 266 259 254 252 250 248 247 247 248 249 250 249 246 243 244 245 242 239 237 235 231 230 229 228 229 231 233 234 234 235 237 243 243 241 239 237 237 227 215 217 219 219 216 193 184 186 184 182 185 189 190 191 190 184 180 176 165 157 157 164 173 179 175 171 168 168 171 169 169 173 171 169 166 163 162 160 156 154 153 152 152
317 307 295 288 277 267 259 256 254 251 249 249 251 252 251 248 246 244 243 244 245 242 237 235 233 231 231 231 232 232 232 233 234 234 237 243 242 240 238 234 231 224 213 214 218 214 205 191 185 183 181 182 183 183 180 177 174 168 166 165 159 156 157 161 174 177 172 174 172 170 172 174 174 174 169 165 165 163 161 159 157 156 155 154 156
327 318 305 296 287 278 268 260 257 254 252 251 252 252 251 248 245 244 243 242 243 242 237 233 232 231 231 233 234 233 231 231 232 232 234 240 240 239 237 231 228 223 212 211 220 221 211 199 190 180 176 178 177 175 169 163 158 157 157 158 158 158 157 161 175 176 176 180 177 173 170 173 178 178 172 166 165 163 161 161 161 160 156 153 161
330 325 316 306 295 286 278 269 262 257 254 252 252 252 250 248 245 243 243 240 240 242 237 231 231 232 231 233 235 234 230 230 230 230 231 236 237 235 235 232 229 223 214 211 218 225 216 201 193 183 179 179 179 176 168 162 157 156 160 161 162 163 163 167 177 179 180 182 181 180 174 174 181 179 172 167 167 166 165 165 165 166 164 160 161
330 327 323 315 303 294 286 278 271 264 258 254 251 250 249 248 245 241 242 240 238 241 237 229 229 231 230 232 234 233 228 227 229 228 229 233 234 232 233 236 233 223 213 207 214 229 225 207 197 191 186 182 182 180 171 167 162 160 162 162 163 168 171 170 178 185 181 179 180 180 177 177 182 181 174 169 169 170 170 170 171 172 174 174 166
334 328 324 318 310 302 294 287 280 271 264 258 253 250 248 247 244 238 238 239 238 239 235 230 230 230 232 232 232 231 226 226 229 229 228 231 233 231 231 235 232 223 212 198 199 211 212 202 192 183 179 177 179 180 175 171 166 164 163 163 168 172 173 171 178 186 186 183 180 179 179 181 180 177 176 173 171 170 173 174 174 172 172 177 174
341 333 327 321 316 308 300 294 287 279 270 264 259 254 250 247 245 239 234 234 236 236 233 231 233 232 233 231 228 227 223 224 228 227 225 228 229 228 228 230 222 214 209 193 185 183 182 180 175 168 167 170 173 174 172 170 167 168 167 166 171 174 172 175 180 185 192 192 187 185 183 186 177 170 172 172 171 168 171 174 170 168 170 174 175
351 343 334 325 320 313 306 297 289 284 276 269 263 259 254 251 248 242 235 232 234 234 233 232 232 232 232 228 225 225 222 222 226 224 222 225 226 224 225 226 214 206 206 196 187 181 175 171 170 165 164 166 168 169 171 171 172 174 173 170 171 176 176 179 187 188 194 196 194 191 185 185 176 168 170 168 169 168 168 171 167 166 168 168 169
3 356 345 335 325 316 310 301 289 283 280 276 269 263 257 255 252 247 238 235 236 234 232 233 232 232 230 228 223 223 222 221 223 222 220 224 225 221 220 222 214 205 203 200 197 195 186 175 171 169 169 171 169 171 175 175 176 176 174 174 174 181 181 181 191 192 193 194 195 195 190 185 172 166 170 168 167 167 169 169 160 158 156 155 157
10 3 355 348 339 326 313 303 295 286 281 279 276 269 263 258 254 251 243 238 238 235 232 232 232 232 230 229 226 223 222 221 222 221 222 225 225 221 220 222 220 211 203 202 203 195 186 178 172 170 173 176 173 169 172 174 176 175 172 174 176 182 181 179 188 191 194 194 193 191 188 187 174 162 164 168 169 169 171 164 151 149 146 146 150
14 9 3 356 348 338 323 308 300 293 287 281 278 273 269 264 256 251 247 242 240 236 234 231 232 233 230 230 228 225 224 223 222 223 224 225 225 222 221 226 226 220 211 206 203 193 189 183 171 167 171 176 177 168 166 172 178 179 176 173 176 183 183 179 183 188 193 196 194 187 182 185 177 163 159 162 165 167 167 157 150 153 152 152 154
16 13 8 2 354 347 339 324 305 292 290 283 274 270 269 268 260 253 250 245 240 237 234 230 232 233 231 231 230 227 226 225 223 223 223 222 224 223 220 226 228 223 217 210 204 198 195 186 171 168 171 175 178 174 169 174 179 180 178 174 175 181 181 179 184 189 192 195 195 186 180 179 174 169 162 155 156 161 162 157 154 158 158 158 158
15 12 8 5 1 356 351 342 323 299 291 283 273 268 265 264 261 256 253 247 240 238 234 229 231 233 232 232 230 229 228 226 224 223 223 221 223 226 223 224 228 222 215 209 203 199 196 187 177 173 173 173 176 176 173 175 177 176 176 174 176 180 180 181 183 189 191 191 192 186 178 174 173 174 167 155 153 156 157 155 154 157 158 155 153
10 9 6 3 1 359 357 354 345 324 300 284 279 274 266 262 260 257 254 252 244 239 234 231 231 231 233 233 231 230 229 228 226 225 224 223 224 228 226 224 228 220 210 209 204 196 194 191 186 180 176 175 174 172 172 174 173 171 173 173 178 183 182 181 178 183 188 186 186 183 175 172 169 167 164 160 157 155 153 150 150 154 156 154 150
4 3 2 360 357 356 356 357 356 349 329 299 281 274 270 265 260 256 253 254 250 242 236 234 234 234 235 234 232 230 231 229 227 227 226 228 227 227 227 225 225 216 206 207 205 199 197 193 188 182 179 177 172 169 170 172 171 170 174 175 178 180 178 177 177 182 185 182 184 182 175 172 168 164 165 163 160 159 159 155 154 153 153 154 154
1 358 357 356 355 354 352 354 356 357 351 332 296 274 271 266 262 259 253 253 252 246 241 237 236 239 238 236 232 231 232 230 229 229 228 230 230 227 226 224 223 216 207 204 203 203 198 191 186 181 180 177 172 171 172 173 172 173 174 174 176 178 177 179 180 185 184 179 185 187 180 174 170 171 171 166 162 160 160 161 159 155 154 155 156
359 357 356 354 354 352 350 351 353 355 356 351 333 296 275 266 265 265 256 253 252 247 244 242 240 240 240 237 233 232 231 230 231 230 229 230 231 229 225 222 223 219 209 203 202 204 197 190 185 178 177 178 175 176 176 175 175 174 172 173 179 181 182 184 185 188 184 180 186 190 186 179 174 177 175 167 162 158 157 161 162 157 157 160 156
358 357 355 354 353 353 350 349 350 350 351 351 347 331 300 275 267 266 261 256 253 247 245 247 246 243 240 238 235 233 231 230 231 231 230 230 231 230 225 221 223 221 212 203 204 206 199 194 189 180 177 179 179 179 177 177 176 173 170 172 181 184 186 190 193 195 188 184 189 190 188 183 176 175 173 166 159 157 158 162 166 162 158 160 157
357 356 354 354 353 352 351 347 346 347 346 345 345 342 328 300 276 268 263 260 258 254 250 250 249 246 242 239 236 234 231 230 231 229 228 228 230 230 226 222 222 222 215 205 206 207 199 198 194 184 180 180 180 179 177 179 177 173 173 174 180 185 189 193 195 199 196 190 190 190 188 184 179 175 173 168 159 157 159 162 167 167 163 161 158
355 354 353 353 352 349 349 347 345 344 343 341 339 338 335 322 295 274 266 265 264 261 257 254 251 247 245 242 238 236 232 229 230 229 226 228 229 229 228 223 222 224 216 205 205 204 197 200 194 182 182 181 177 176 176 180 177 174 176 176 180 185 189 192 194 198 199 196 194 189 184 181 179 177 174 169 161 157 156 159 163 163 162 160 154
355 354 352 351 351 349 347 346 344 341 340 338 334 331 331 330 315 293 279 273 267 263 258 255 253 250 247 244 241 239 233 228 229 229 228 228 227 227 228 224 222 225 219 206 201 202 201 200 190 180 183 182 179 177 174 178 178 177 178 177 182 188 189 191 192 194 198 200 196 187 182 181 180 179 175 168 163 161 157 158 160 153 149 151 148
356 354 350 349 350 349 346 345 344 340 338 335 330 327 326 326 323 312 298 287 276 265 260 257 254 252 249 247 244 243 237 229 228 229 229 228 225 224 225 224 223 222 221 212 200 204 206 198 189 183 182 180 181 180 176 177 179 179 179 179 183 189 191 193 193 196 199 197 193 186 182 183 184 182 179 172 166 167 164 161 162 155 150 151 150
356 356 351 349 349 348 345 343 342 339 335 333 327 323 324 320 317 315 307 299 289 273 263 258 255 253 250 249 248 245 240 232 228 228 230 228 224 224 223 224 223 219 223 219 202 201 205 196 191 187 183 182 183 182 179 177 177 178 179 179 184 189 192 195 197 199 197 188 186 185 182 183 185 185 184 179 172 168 168 167 167 164 160 159 158
353 355 353 350 348 346 343 340 339 339 335 332 327 320 319 317 310 309 306 301 296 284 269 260 255 253 250 249 251 247 242 235 227 225 227 227 224 223 223 223 222 219 223 221 205 198 198 193 192 190 186 187 188 186 182 179 178 181 180 177 180 188 191 198 200 201 195 185 183 182 181 183 185 185 185 181 174 169 168 170 172 171 169 168 166
347 350 351 351 350 348 343 336 334 336 336 333 331 325 318 314 305 302 303 299 295 290 280 267 256 253 252 250 251 249 247 242 230 224 225 228 225 220 221 222 223 220 220 216 205 198 194 190 192 192 187 186 189 188 185 185 184 182 180 177 179 181 185 197 201 200 196 186 182 180 179 182 182 182 184 181 177 174 171 172 174 175 174 174 173
339 341 344 346 347 347 344 339 334 334 334 332 330 329 323 315 303 296 296 298 297 292 289 278 261 252 251 251 250 249 250 248 241 233 228 228 228 224 221 221 223 223 220 212 202 197 193 190 192 192 187 184 185 185 187 192 191 185 180 176 178 179 180 190 192 192 193 184 178 179 179 182 182 181 182 181 179 178 177 176 177 178 179 180 180
335 334 337 338 338 339 342 342 340 337 334 331 328 327 327 327 320 306 296 297 300 297 294 287 272 256 248 246 247 247 247 248 247 242 231 226 229 230 227 223 222 225 222 215 205 197 194 192 191 190 188 186 184 183 186 193 195 191 185 175 173 181 184 186 181 180 187 182 177 179 181 183 185 185 184 182 181 181 182 183 183 184 185 188 190
335 332 331 331 329 331 336 339 340 339 335 331 327 326 326 330 332 328 315 303 299 299 297 293 287 275 257 247 246 247 246 246 246 243 234 226 227 232 232 225 222 224 223 216 206 198 196 194 192 191 189 187 185 184 186 190 193 194 192 185 181 184 184 182 176 173 178 179 178 182 184 184 186 187 186 185 184 185 186 187 189 192 193 195 198
334 332 329 328 325 324 330 335 337 339 336 330 326 326 326 326 327 331 327 310 297 292 292 291 290 288 274 256 251 251 248 245 243 241 237 232 230 231 231 225 221 224 222 216 206 200 197 194 194 194 188 186 186 186 187 188 189 193 196 194 191 190 187 183 179 173 173 175 179 184 185 185 187 187 187 188 187 188 189 191 193 196 199 201 203
332 331 329 328 325 323 324 328 332 335 334 330 325 326 328 327 325 326 326 320 304 291 286 286 286 287 280 263 254 253 250 245 242 241 238 235 232 230 229 225 222 223 222 217 212 205 198 194 196 195 188 186 189 189 189 189 190 192 195 196 196 195 192 190 186 180 176 174 175 182 185 185 187 188 189 189 191 191 190 192 196 199 202 205 208
329 328 327 325 324 323 321 321 323 328 331 330 324 321 324 326 326 325 324 322 316 301 288 283 286 289 285 273 259 252 249 245 242 242 240 236 234 231 229 226 222 221 218 217 215 211 204 199 198 198 193 191 192 192 192 192 192 193 194 196 199 199 197 198 198 194 188 181 177 181 183 183 186 189 191 191 192 194 193 193 196 201 205 208 211
325 324 323 322 320 320 319 317 317 318 323 326 323 317 315 318 322 322 322 321 318 312 297 283 285 290 292 286 267 252 247 243 241 242 240 236 235 233 229 224 221 220 218 216 214 212 209 206 203 200 197 194 193 194 195 194 193 194 195 196 199 201 200 200 201 200 198 193 188 187 186 184 185 188 192 194 194 195 196 197 197 200 206 209 212
322 320 320 319 318 317 316 313 313 312 313 319 320 317 313 312 315 316 319 320 318 316 308 295 289 288 290 293 279 257 249 248 246 243 241 237 235 235 233 224 220 219 219 217 213 211 211 210 204 199 197 197 195 195 197 196 194 194 197 198 200 203 203 203 201 200 198 197 195 193 192 190 189 190 192 194 196 197 197 198 201 202 205 210 214